Location: Newark
(27.9675°N, 86.8869°E)
Time: 12:29:04
(UTC+00:00)

deb Explorer IX - Pass Details

Date: 26 October 2019
Orbit: 546 x 1105 km, 38.8° (Epoch: 20 November)

Event Time Altitude Azimuth Distance (km) Brightness Sun altitude
Rises 11:14:52 0° 293° (WNW) 3,425 ? 3.1°
Reaches altitude 10° 11:17:21 10° 288° (WNW) 2,570 ? 2.6°
Maximum altitude 11:23:20 48° 215° (SW) 1,270 ? 1.3°
Drops below altitude 10° 11:30:03 10° 144° (SE) 2,881 ? -0.1°
Sets 11:32:59 0° 138° (SE) 3,874 ? -0.7°
